Las Vegas, NM

12:47 AM MST on December 15, 2017 (GMT -0700)
Las Vegas Municipal

Weather History for KLVS - July, 2013

Change the Weather History Date:

Tuesday, July 9, 2013

  Actual Average Record
Temperature  
Mean Temperature 74 °F -  
Max Temperature 88 °F 84 °F 95 °F (2016)
Min Temperature 60 °F 53 °F 37 °F (1972)
Cooling Degree Days 8    
Growing Degree Days 24 (Base 50)    
Moisture  
Dew Point 51 °F    
Average Humidity 53    
Maximum Humidity 73    
Minimum Humidity 25    
Precipitation  
Precipitation 0.36 in - - ()
Sea Level Pressure  
Sea Level Pressure 30.09 in    
Wind  
Wind Speed 10 mph (South)    
Max Wind Speed 25 mph    
Max Gust Speed 34 mph    
Visibility 9 miles    
Events Rain , Thunderstorm    
Averages and records for this station are not official NWS values.
T = Trace of Precipitation, MM = Missing Value Source: NWS Daily Summary

Daily Weather History Graph

Daily Weather History Graph

Search for Another Location

Airport or City:

Trip Planner

Search our weather history database for the weather conditions in past years. The results will help you decide how hot, cold, wet, or windy it might be!

Date:

Astronomy

Jul. 09, 2013 Rise Set
Actual Time 5:52 AM MDT 8:18 PM MDT
Civil Twilight 5:23 AM MDT 8:48 PM MDT
Nautical Twilight 4:46 AM MDT 9:24 PM MDT
Astronomical Twilight 4:06 AM MDT 10:04 PM MDT
Moon 7:14 AM MDT (7/9) 9:03 PM MDT (7/9)
Length of Visible Light 15h 25m
Length of Day
14h 25m
New Moon, 2% of the Moon is Illuminated
Jul 9
New Moon
Jul 15
First Quarter
Jul 22
Full
Jul 29
Last Quarter
Aug 6
New

Hourly Weather History & Observations

Time (MDT) Temp. Dew Point Humidity Pressure Visibility Wind Dir Wind Speed Gust Speed Precip Events Conditions
12:53 AM 66.0 °F 52.0 °F 60% 29.98 in 10.0 mi SSW 12.7 mph - N/A   Clear
1:53 AM 64.9 °F 51.1 °F 61% 29.98 in 10.0 mi SSW 11.5 mph - N/A   Clear
2:53 AM 64.0 °F 52.0 °F 65% 29.98 in 10.0 mi South 9.2 mph - N/A   Clear
3:53 AM 63.0 °F 51.1 °F 65% 29.98 in 10.0 mi South 11.5 mph - N/A   Clear
4:53 AM 61.0 °F 51.1 °F 70% 30.01 in 10.0 mi WNW 3.5 mph - N/A   Clear
5:53 AM 60.1 °F 51.1 °F 72% 30.03 in 10.0 mi Calm Calm - N/A   Clear
6:53 AM 63.0 °F 52.0 °F 67% 30.02 in 10.0 mi Calm Calm - N/A   Clear
7:53 AM 68.0 °F 51.1 °F 55% 30.03 in 10.0 mi South 8.1 mph - N/A   Clear
8:53 AM 72.0 °F 51.1 °F 48% 30.03 in 10.0 mi SSW 8.1 mph - N/A   Clear
9:53 AM 75.9 °F 50.0 °F 40% 30.03 in 10.0 mi SSW 6.9 mph - N/A   Clear
10:53 AM 80.1 °F 48.0 °F 32% 30.01 in - South 5.8 mph - N/A   Unknown
11:53 AM 82.9 °F 46.9 °F 28% 29.99 in 10.0 mi West 8.1 mph - N/A   Clear
12:53 PM 82.9 °F 48.0 °F 29% 29.97 in 10.0 mi Calm Calm - N/A   Scattered Clouds
1:53 PM 84.0 °F 46.9 °F 27% 29.95 in 10.0 mi ESE 8.1 mph - N/A   Mostly Cloudy
2:53 PM 87.1 °F 46.9 °F 25% 29.93 in 10.0 mi SSE 15.0 mph 18.4 mph N/A   Clear
3:49 PM 86.0 °F 46.4 °F 25% 30.30 in 10.0 mi SSE 11.5 mph 16.1 mph N/A Thunderstorm Scattered Clouds
3:53 PM 86.0 °F 46.0 °F 25% 29.93 in 10.0 mi South 6.9 mph 16.1 mph N/A Thunderstorm Mostly Cloudy
4:53 PM 84.0 °F 46.9 °F 27% 29.94 in 10.0 mi Variable 3.5 mph - N/A Thunderstorm Mostly Cloudy
5:16 PM 71.6 °F 53.6 °F 53% 30.32 in 1.8 mi WSW 11.5 mph 31.1 mph 0.07 in Rain , Thunderstorm Heavy Thunderstorms and Rain
5:44 PM 71.6 °F 53.6 °F 53% 30.31 in 3.0 mi WSW 21.9 mph 32.2 mph 0.34 in Rain , Thunderstorm Heavy Thunderstorms and Rain
5:53 PM 70.0 °F 54.0 °F 57% 30.00 in 5.0 mi SW 16.1 mph - 0.35 in Rain , Thunderstorm Thunderstorms and Rain
6:03 PM 71.6 °F 53.6 °F 53% 30.30 in 10.0 mi WSW 11.5 mph - 0.01 in Rain Light Rain
6:14 PM 71.6 °F 53.6 °F 53% 30.31 in 10.0 mi NNW 4.6 mph - 0.01 in Thunderstorm Mostly Cloudy
6:53 PM 64.9 °F 55.9 °F 73% 30.04 in 10.0 mi North 18.4 mph 26.5 mph 0.01 in Rain , Thunderstorm Light Rain
7:53 PM 64.9 °F 55.0 °F 70% 30.03 in 10.0 mi ENE 24.2 mph 34.5 mph 0.00 in Rain , Thunderstorm Light Rain
8:17 PM 66.2 °F 53.6 °F 64% 30.35 in 10.0 mi East 25.3 mph 34.5 mph 0.00 in Rain Light Rain
8:28 PM 66.2 °F 51.8 °F 60% 30.35 in 10.0 mi East 18.4 mph 33.4 mph 0.00 in Thunderstorm Scattered Clouds
8:43 PM 66.2 °F 51.8 °F 60% 30.34 in 10.0 mi East 15.0 mph - 0.00 in   Scattered Clouds
8:53 PM 66.9 °F 51.1 °F 57% 30.01 in 10.0 mi East 13.8 mph - 0.00 in Thunderstorm Scattered Clouds
9:14 PM 66.2 °F 53.6 °F 64% 30.32 in 10.0 mi ESE 11.5 mph - N/A Thunderstorm Mostly Cloudy
9:36 PM 66.2 °F 53.6 °F 64% 30.34 in 10.0 mi WNW 15.0 mph - N/A   Partly Cloudy
9:53 PM 64.9 °F 54.0 °F 68% 30.00 in 10.0 mi NW 10.4 mph - N/A   Clear
10:53 PM 64.9 °F 53.1 °F 65% 29.99 in 10.0 mi Calm Calm - N/A   Clear
11:53 PM 66.0 °F 50.0 °F 56% 29.99 in 10.0 mi Calm Calm - N/A   Clear